Location: Sandia Vista
(35.0848°N, 106.5234°W)
Time: 23:22:20
(UTC+00:00)

Daily predictions for brighter satellites

Satellite Brightness Start Highest point End
(mag) Time Altitude Azimuth Time Altitude Azimuth Time Altitude Azimuth
Meteor 1-4 Rocket 3.1 12:00:45 10° S 12:04:15 57° E 12:07:42 10° NNE
Cosmos 614 Rocket 3.9 12:01:27 10° SSW 12:06:39 71° WNW 12:11:53 10° NNE
Cosmos 1536 Rocket 4.5 12:05:46 23° WSW 12:06:54 26° WNW 12:10:31 10° NNW
Cosmos 2278 Rocket 2.6 12:02:53 10° NNW 12:08:33 66° ENE 12:14:09 10° SSE
Milstar 3 Cent rocket 3.8 12:06:36 10° SSW 12:10:32 21° SSE 12:14:03 10° ESE
Cosmos 1844 4.4 12:06:50 10° NW 12:11:53 32° WSW 12:16:53 10° SSW
Cosmos 2181 Rocket 4.5 12:07:22 10° NNW 12:13:04 36° W 12:18:40 10° SSW
SKYMED 2 4.2 12:10:06 10° SSE 12:14:21 58° ENE 12:18:37 10° N
Cosmos 921 Rocket 2.9 12:11:49 10° NNW 12:16:06 70° WSW 12:20:16 10° S
Meteor 1-31 Rocket 3.5 12:14:23 10° N 12:17:43 30° WNW 12:21:02 10° SW
GP-B 3.5 12:13:59 10° SSE 12:18:22 68° E 12:22:47 10° N
Milstar 3 4.2 12:13:21 10° SW 12:19:14 31° SSE 12:25:43 10° E
ALOS 3.1 12:15:56 10° NNE 12:20:30 55° E 12:25:04 10° S
USA 234 3.8 12:16:03 10° SSE 12:21:58 37° SW 12:27:56 10° WNW
NOSS 0 Rocket 4.3 12:16:20 10° SW 12:22:09 43° WNW 12:28:02 10° N
NOSS 3-4 (A) 3.5 12:16:30 10° SW 12:22:20 54° NW 12:28:27 10° NNE
NOSS 3-4 (C) 3.5 12:16:33 10° SW 12:22:25 55° NW 12:28:34 10° NNE
Cosmos 1892 Rocket 3.8 12:20:44 10° S 12:25:10 74° E 12:29:36 10° N
Cosmos 1470 3.1 12:23:42 10° NNW 12:27:24 42° W 12:31:04 10° SSW
Cosmos 676 Rocket 4.0 12:22:58 10° SSW 12:28:16 87° WNW 12:33:35 10° NNE
GPS 2-05 Rocket1 3.2 12:27:09 16° W 12:28:59 33° SSW 12:31:31 10° SE
Cosmos 1707 3.3 12:26:21 10° SSW 12:29:57 36° W 12:33:36 10° NNW
METEOR-M 4.3 12:29:26 10° NNE 12:34:47 81° ESE 12:40:08 10° S
BREEZE-M DEB (TANK) 2.5 12:31:51 10° WNW 12:35:19 31° SW 12:37:22 10° SSE
Cosmos 1484 Rocket 3.0 12:32:06 10° N 12:35:42 44° WNW 12:39:21 10° SSW
Cosmos 292 Rocket 3.9 12:31:15 10° NNW 12:35:56 54° WSW 12:40:37 10° S
ERBS 4.1 12:35:41 11° W 12:37:47 17° NW 12:40:06 10° N
Cosmos 489 Rocket 4.5 12:32:03 10° NNW 12:38:13 64° WSW 12:44:23 10° S
Cosmos 1190 Rocket 4.5 12:34:09 10° SW 12:39:04 39° WNW 12:44:02 10° N
Cosmos 389 Rocket 3.5 12:36:57 10° SW 12:39:49 24° WNW 12:42:41 10° NNW
Cosmos 2219 Rocket 3.8 12:38:07 10° W 12:40:55 14° NW 12:43:43 10° NNW
Cosmos 44 3.5 12:37:02 10° NNW 12:41:20 62° ENE 12:45:35 10° SE
PAYLOAD B 4.2 12:36:05 10° N 12:41:37 70° WNW 12:47:06 10° SSW
Okean 1-7 Rocket 3.5 12:37:25 10° SSW 12:41:48 69° W 12:46:14 10° N
CZ-4B DEB 4.3 12:38:16 10° N 12:43:38 58° WNW 12:48:57 10° SSW
Cosmos 407 Rocket 4.2 12:39:19 10° SW 12:43:50 30° WNW 12:48:20 10° N
Cosmos 2237 Rocket 2.9 12:39:43 10° SW 12:44:48 33° WNW 12:49:56 10° N
Cosmos 1606 Rocket 3.5 12:41:09 10° NNW 12:45:24 59° W 12:49:38 10° S
BREEZE-M DEB (TANK) 4.0 12:44:14 10° NNW 12:46:12 24° NE 12:48:47 10° E
CZ-4B R/B 4.5 12:44:22 10° NNW 12:46:42 15° WNW 12:48:59 10° WSW
SeaSat 1 2.6 12:44:28 10° NNE 12:49:26 86° ESE 12:54:21 10° SSW
ATLAS 3B R/B 2.9 12:46:55 10° NNW 12:53:40 78° ENE 13:00:36 10° SE
